Wind_Speed
17 16 15 14 14 14 13 12 11 12 12 12 11 11 11 11 11 11 12 14 15 14 13 11 10 10 11 12 12 12 11 10 9 10 11 11 11 12 13 14 15 16 16 17 18 18 18 19 21 22 22 23 24 25 25 25 26 26 26 26 27 27 28 28 29 30 30 30 30 29 28 27 26 26 26 26 27 28 28 29 31 32 34 35 36
18 17 16 14 14 13 12 11 11 12 12 12 11 11 11 11 11 12 13 14 14 13 11 10 10 11 12 13 12 12 11 10 10 11 11 10 10 12 13 15 16 17 17 17 17 18 19 20 21 22 23 24 24 24 25 25 25 25 26 26 27 28 29 30 30 31 30 30 29 27 26 25 25 26 26 27 28 28 29 31 32 34 35 36 36
18 17 16 14 13 13 12 12 12 12 12 11 11 11 10 11 11 13 14 14 14 12 11 10 10 11 12 12 12 11 11 11 11 11 11 10 10 12 13 15 16 17 17 17 17 18 20 21 22 23 23 24 24 24 24 24 25 26 26 27 28 29 30 31 31 31 30 29 27 26 25 25 26 27 27 28 29 29 31 32 33 35 36 37 38
17 17 16 14 13 13 13 12 12 13 12 10 10 10 10 11 12 14 14 13 13 12 10 10 10 11 11 12 12 12 12 12 12 12 11 11 11 12 13 14 15 16 16 17 18 19 21 22 23 23 23 23 23 23 24 24 25 26 27 29 30 31 31 31 31 30 29 28 26 25 25 26 27 28 29 30 31 32 32 34 35 36 37 38 40
17 16 16 14 14 14 13 13 13 12 11 9 9 9 10 12 13 13 13 12 12 11 10 10 10 10 11 11 12 12 12 13 12 12 12 12 12 12 13 14 15 15 16 18 19 20 21 22 23 23 23 23 23 23 24 25 26 27 29 30 31 31 31 31 30 29 28 27 26 25 26 27 28 29 31 32 33 33 34 35 37 38 38 40 41
16 16 16 15 14 14 14 14 13 11 10 9 9 10 11 12 13 13 12 12 11 11 10 10 10 10 10 11 12 12 12 13 13 12 13 13 13 13 14 14 15 15 16 18 19 21 22 23 23 23 23 23 23 24 24 25 27 28 29 30 30 30 30 29 29 28 27 26 26 26 27 29 30 31 33 34 34 35 36 37 38 39 40 41 42
16 15 15 15 15 14 15 15 14 11 10 10 10 11 12 13 12 12 12 12 12 11 11 10 9 9 10 11 11 12 13 13 13 13 14 14 14 15 15 14 14 15 16 18 19 21 22 23 23 23 23 23 23 24 25 26 27 28 29 29 30 30 29 29 28 27 27 27 27 28 29 30 32 33 35 35 36 36 37 38 40 40 41 42 43
16 15 15 15 15 15 15 15 14 12 10 11 11 12 13 13 13 12 13 13 12 12 11 10 9 9 10 11 12 12 13 13 13 14 14 15 15 15 15 15 15 16 17 18 20 22 22 23 23 23 23 23 24 24 25 26 28 28 29 29 29 29 29 28 28 28 28 28 28 29 30 32 33 35 36 37 37 38 39 40 41 42 42 43 44
15 15 15 15 15 15 15 15 14 13 12 12 12 13 14 14 13 13 14 14 13 13 11 10 9 9 10 11 12 13 13 13 14 14 15 15 15 15 14 15 15 16 18 19 21 22 23 23 23 23 23 23 24 24 25 27 28 28 29 29 29 29 29 28 28 29 29 29 29 30 32 33 34 35 37 37 38 39 40 41 42 42 43 43 45
15 15 15 16 15 15 16 16 15 13 13 13 14 14 14 14 14 14 15 15 14 12 11 10 9 10 11 11 12 13 14 14 14 14 15 15 15 14 14 15 16 17 18 20 22 22 23 23 23 23 23 23 24 24 25 27 28 29 29 29 29 29 29 29 29 29 29 29 29 30 32 33 34 36 37 38 39 40 41 42 42 43 43 44 45
15 15 16 16 16 15 16 16 15 14 14 14 15 15 14 14 14 15 15 15 14 12 11 10 10 11 12 13 14 14 14 14 14 15 15 15 14 14 14 15 16 17 18 20 21 22 23 23 23 23 24 24 24 24 26 27 28 29 29 28 29 29 29 29 29 29 29 29 30 30 32 34 35 36 38 39 40 41 41 42 43 43 43 44 46
16 16 17 17 15 16 17 16 15 15 15 15 16 15 15 15 15 16 15 14 13 12 11 11 11 12 13 14 15 14 14 14 14 15 14 14 14 14 14 15 16 17 18 20 21 22 23 23 23 24 24 24 24 25 27 28 29 29 29 28 29 29 29 29 29 28 29 29 30 31 33 35 36 37 38 39 40 41 42 42 43 43 44 45 46
16 16 17 17 16 16 17 17 17 16 16 16 16 16 16 15 15 16 16 14 13 12 12 13 13 14 14 15 15 15 14 15 14 14 14 14 14 14 15 16 16 17 18 19 20 22 23 23 24 24 24 24 25 26 27 28 29 29 29 29 29 29 29 29 29 29 29 30 32 33 34 35 36 37 38 39 41 41 42 42 43 43 44 45 47
17 17 17 17 16 16 17 17 18 18 18 17 17 17 17 16 15 16 17 15 13 13 14 15 15 15 16 16 16 16 15 15 15 14 14 14 14 15 16 16 16 17 18 19 20 22 23 24 25 25 25 25 26 27 28 28 29 30 30 29 29 29 29 29 29 30 31 32 33 34 35 36 37 38 39 40 41 42 43 43 44 44 45 47 48
17 18 17 17 17 17 17 18 19 19 19 18 18 18 18 17 16 17 17 16 14 14 15 16 16 16 17 17 17 17 16 15 15 15 14 14 15 16 16 16 16 17 18 19 20 22 23 24 25 25 26 26 27 28 28 29 30 30 30 30 29 30 30 30 30 31 32 33 33 34 35 36 37 39 40 41 42 43 44 45 45 46 47 48 49
18 18 18 17 17 18 18 19 20 20 20 20 19 19 19 18 17 18 18 17 16 16 17 17 17 18 18 18 18 17 15 15 15 15 15 15 16 16 17 17 17 18 18 19 20 22 23 24 25 26 26 27 28 29 29 30 31 31 31 31 30 30 31 31 31 32 33 34 35 35 36 36 37 39 40 42 43 44 45 46 47 47 47 48 49
20 19 18 18 17 18 19 19 20 20 20 21 20 20 20 20 19 19 19 18 17 17 18 18 19 19 18 18 17 17 16 15 15 15 16 16 17 17 17 18 19 19 20 20 21 22 24 25 25 26 27 28 29 30 30 31 31 32 32 32 32 32 32 32 32 33 34 35 36 36 36 37 38 39 41 42 44 45 46 47 47 47 47 47 48
22 20 19 18 18 18 19 19 19 20 20 21 21 21 21 21 20 20 20 19 19 19 19 19 19 19 18 18 18 17 16 15 15 15 16 17 17 17 18 19 20 20 21 21 21 22 24 25 26 27 28 29 30 31 31 32 32 32 33 33 33 33 32 33 33 34 35 36 37 37 37 38 39 40 42 43 44 46 47 47 47 47 47 48 48
23 22 21 19 19 19 19 19 19 19 20 21 21 22 22 22 21 20 20 21 20 20 20 20 20 20 19 19 19 18 17 16 16 16 17 17 18 18 18 19 21 21 22 22 22 23 24 26 27 28 28 29 31 31 32 32 33 33 34 34 34 34 34 34 34 35 36 37 37 38 39 40 41 42 43 44 45 46 48 49 48 47 47 48 48
23 23 22 20 19 18 18 19 20 20 20 21 21 21 22 22 21 20 21 23 22 21 21 21 20 20 20 20 19 19 18 17 17 17 17 18 18 19 19 20 21 22 23 23 23 24 25 26 27 28 29 30 31 32 33 33 34 34 34 35 35 35 35 36 36 36 36 37 39 40 41 42 42 43 44 44 45 47 50 51 50 48 47 48 48
23 23 21 20 19 18 19 19 20 20 20 20 21 22 22 22 22 21 23 24 24 22 21 21 21 20 20 20 20 20 19 18 17 18 18 18 19 19 20 20 22 23 24 24 25 25 26 27 28 29 29 30 31 32 33 34 34 35 35 35 35 36 36 37 37 38 38 39 41 42 42 43 44 45 46 47 48 49 51 52 50 48 48 48 48
23 21 20 19 19 19 20 20 19 19 20 20 21 22 24 25 25 24 26 26 25 23 21 21 21 21 21 21 20 21 20 19 18 19 19 19 19 20 21 21 22 24 25 25 26 27 27 28 29 30 30 31 32 33 34 34 35 35 36 36 36 36 36 37 38 39 40 41 42 43 45 46 47 48 49 49 50 50 51 51 50 47 47 48 47
22 20 19 19 19 19 21 21 19 19 20 20 21 21 23 26 27 27 29 28 24 21 21 21 21 21 21 21 21 22 21 20 20 20 20 20 20 21 21 22 23 24 26 26 27 27 28 29 30 30 31 32 33 34 35 36 36 37 37 37 37 37 37 37 38 39 41 42 43 44 45 47 48 48 48 48 49 51 51 50 48 47 47 47 47
21 19 19 20 19 19 21 21 20 20 19 19 21 21 21 24 26 27 28 27 22 19 20 20 20 20 21 22 22 22 22 21 21 21 21 21 21 22 22 23 24 25 27 27 28 28 29 30 30 31 32 33 34 35 36 37 38 38 39 39 39 39 39 39 39 40 42 43 44 45 46 46 47 46 47 48 50 52 52 49 47 46 47 46 46
20 18 19 20 19 20 21 21 20 19 18 19 20 21 21 22 25 27 27 25 21 18 19 19 19 20 21 22 23 23 23 22 22 22 22 23 23 23 23 23 24 26 27 28 29 29 30 31 31 32 33 35 35 36 36 38 38 39 40 40 41 41 41 41 41 42 43 44 45 46 47 47 46 46 48 50 51 52 51 49 47 46 46 45 45
20 19 19 19 20 20 20 19 19 18 18 20 20 21 22 22 24 25 23 22 20 19 19 19 20 21 21 22 24 24 24 24 23 23 23 24 24 24 24 25 25 27 28 29 30 30 31 32 33 34 35 36 37 37 37 38 39 40 41 42 42 42 43 43 43 43 44 46 47 47 48 48 46 47 49 51 52 52 50 48 46 46 46 45 45
19 20 20 19 20 20 19 19 19 19 20 21 21 22 23 22 21 20 19 20 21 20 19 20 20 21 22 23 24 25 25 25 24 24 25 25 26 26 26 26 27 28 29 30 31 32 32 33 34 35 37 38 38 38 39 39 41 42 42 43 44 44 44 44 44 44 45 46 47 48 49 49 48 48 51 52 51 51 50 48 46 46 46 45 45
19 21 21 20 20 20 20 20 20 20 20 21 21 22 22 21 20 19 18 19 20 20 20 20 20 21 22 23 24 25 26 25 25 25 26 27 27 27 27 28 29 30 31 32 33 34 35 35 36 37 38 39 40 40 40 41 42 43 44 45 45 46 45 45 45 45 46 47 48 49 49 50 50 50 52 52 50 50 49 47 46 46 46 45 45
19 21 21 21 21 20 20 20 20 20 20 21 21 20 21 20 18 18 18 19 20 21 21 20 20 21 22 23 24 26 26 26 26 27 28 29 29 29 29 30 31 32 33 34 35 36 37 37 38 39 40 41 42 42 42 43 44 45 46 47 47 47 47 46 46 46 47 48 49 49 50 51 51 51 52 51 49 49 48 46 46 46 46 45 45
20 21 21 22 22 21 21 20 20 19 19 20 20 19 20 20 18 18 19 20 20 20 20 20 20 21 22 23 24 25 26 26 26 28 29 30 30 30 31 31 33 34 36 37 37 38 39 39 40 41 42 42 43 44 44 45 46 47 48 49 49 50 49 48 47 47 47 49 50 49 50 51 51 50 51 50 48 49 48 46 46 46 46 45 44
20 21 22 22 22 22 22 20 20 19 19 20 20 19 19 19 20 20 20 20 20 20 20 20 20 21 22 23 24 25 25 26 27 28 30 31 31 32 32 33 34 36 37 38 40 40 41 41 42 43 44 44 44 44 45 45 46 48 50 51 52 52 51 49 48 47 48 49 49 49 51 51 50 50 50 49 48 48 48 47 46 46 46 46 45
20 21 22 22 23 23 22 21 20 19 19 19 19 19 19 20 21 21 21 22 21 21 21 21 21 22 22 23 24 25 25 26 27 29 30 31 32 33 33 35 36 37 39 40 42 42 43 44 44 45 45 45 45 45 44 45 47 49 51 53 54 54 54 52 49 47 47 49 49 50 51 51 50 49 49 48 48 48 48 47 47 47 47 46 45
21 21 22 23 24 23 22 22 21 19 19 19 19 20 21 22 23 23 23 23 23 22 22 23 23 23 23 23 23 24 25 26 27 29 30 32 33 33 35 36 37 39 40 42 43 44 45 45 47 47 47 47 47 46 45 45 47 49 51 53 54 56 58 56 50 46 47 48 49 50 51 50 49 48 47 48 48 48 48 48 48 48 47 47 46
22 22 23 24 24 24 23 22 21 20 19 19 20 21 22 23 24 24 24 24 23 22 23 23 24 23 23 22 23 23 25 26 28 29 31 32 33 34 36 37 39 40 42 43 44 45 46 47 48 49 49 49 48 47 46 46 47 48 50 52 53 56 58 55 48 45 47 49 49 49 50 49 47 47 47 48 48 48 48 48 48 48 48 47 46
24 23 24 24 25 24 23 23 22 21 19 19 20 21 23 24 24 25 24 23 22 22 23 23 23 23 23 22 23 24 25 27 28 29 31 32 34 35 36 38 39 41 42 44 45 46 48 49 50 50 50 50 50 48 47 46 47 48 50 52 54 55 54 50 46 45 48 48 48 48 49 48 46 46 47 48 48 49 49 49 48 48 48 47 46
24 24 24 25 25 25 24 23 22 21 20 19 20 22 23 24 24 23 23 22 21 22 23 23 23 23 23 23 23 24 26 27 28 29 31 33 34 35 37 39 40 41 43 44 46 47 49 51 51 51 52 53 53 51 47 46 47 48 49 52 54 53 49 44 44 47 49 48 47 47 47 47 46 46 47 48 49 49 50 49 48 48 47 47 46
24 25 25 26 26 26 25 24 23 21 20 20 20 22 23 23 22 22 21 21 21 21 22 22 23 23 23 23 24 25 27 28 29 31 32 34 35 36 38 39 40 41 42 44 46 49 52 54 54 53 52 53 56 54 50 48 48 47 49 52 52 49 45 42 45 48 48 46 46 46 47 47 46 46 47 48 49 49 49 49 48 48 47 46 46
24 25 26 26 26 26 25 24 23 22 21 21 21 22 22 22 21 21 20 20 20 21 21 22 23 24 24 25 26 27 28 29 30 32 34 35 37 38 39 39 39 40 42 43 46 48 50 51 51 51 50 52 56 58 54 50 48 47 50 52 50 45 43 44 46 47 45 44 45 46 46 46 46 47 47 48 49 49 48 48 48 48 46 46 46
25 26 26 27 27 27 26 25 24 23 22 22 21 21 21 21 20 20 20 20 20 21 22 23 24 25 26 26 27 28 29 30 32 33 35 36 37 38 38 39 39 41 42 43 45 47 47 46 45 46 47 50 53 54 51 49 47 48 51 52 48 44 43 46 46 44 43 43 45 45 45 45 46 47 47 48 48 48 48 48 48 47 45 45 45
25 26 27 27 27 27 26 26 25 24 23 22 21 20 20 20 20 20 20 20 21 22 23 24 25 26 27 27 28 29 30 31 33 34 35 36 37 39 40 40 40 41 42 43 45 46 46 43 41 42 44 46 47 48 47 46 48 49 50 48 45 44 45 45 44 42 42 43 43 45 46 46 46 47 47 48 48 48 48 48 48 46 45 44 45
26 27 27 27 27 27 27 27 26 25 24 22 21 20 19 19 20 20 20 21 21 23 24 25 26 27 27 28 29 29 31 32 33 34 35 36 38 40 39 38 39 41 42 44 45 46 46 44 42 41 42 43 44 45 46 47 47 47 45 43 44 45 45 43 41 41 42 43 44 45 46 45 46 47 48 48 48 47 47 48 48 46 44 44 45
26 26 27 28 28 27 27 27 27 26 24 22 20 19 19 19 20 20 20 21 22 23 24 25 26 27 27 28 29 30 31 32 33 34 36 37 37 37 37 38 40 42 43 44 45 46 47 46 44 43 42 42 43 44 45 45 44 41 41 43 45 45 43 40 40 41 43 45 46 46 45 45 46 47 48 48 48 47 47 48 48 46 44 44 45
26 26 27 28 28 27 27 27 27 26 24 22 20 19 19 20 20 20 20 21 22 23 24 25 26 27 28 29 31 31 32 33 34 35 36 36 36 37 38 41 43 44 45 45 46 46 46 45 44 44 44 45 45 46 46 44 41 40 42 44 44 42 40 40 41 43 44 45 45 45 45 46 46 48 48 48 47 47 47 48 48 46 43 44 45
26 27 28 28 28 27 27 27 27 26 24 22 20 20 20 20 20 20 20 21 22 24 25 26 27 28 30 31 33 33 33 33 35 35 36 36 38 39 41 43 45 46 45 44 45 46 45 44 44 44 45 46 46 46 45 43 41 41 42 41 40 40 41 42 43 43 44 45 45 44 45 46 47 48 48 47 47 46 47 48 47 45 43 43 45
27 28 28 28 28 28 28 28 27 26 24 22 21 21 22 22 22 21 22 23 24 25 27 27 28 30 31 33 34 34 34 34 35 35 36 38 40 42 44 46 46 46 44 44 45 45 44 43 44 45 46 47 46 45 43 42 40 40 40 40 41 42 44 44 44 43 44 45 45 45 46 47 48 47 47 46 46 46 47 47 46 44 42 43 44
27 28 29 28 28 28 28 28 27 25 23 22 22 22 22 23 23 23 24 26 26 27 28 29 30 31 32 33 34 35 35 35 35 36 38 40 43 44 46 46 46 44 44 44 45 44 43 44 45 47 47 46 45 44 42 41 40 40 41 42 43 44 44 45 44 45 45 46 46 46 47 47 46 46 47 46 46 46 46 47 45 43 42 43 44
28 29 29 28 28 29 28 28 27 25 24 23 23 23 24 25 25 26 27 28 28 29 30 31 31 32 33 34 35 36 36 36 36 37 40 43 45 46 47 46 44 43 44 45 45 43 43 45 46 47 46 45 44 43 42 41 41 42 42 43 43 44 45 45 45 45 45 46 46 45 45 44 44 46 46 46 46 46 46 46 44 42 41 42 43
29 29 29 28 28 29 28 27 26 25 24 24 24 25 26 27 27 28 29 29 30 31 31 32 32 33 33 34 36 37 37 37 38 40 42 45 46 47 46 44 42 43 45 45 43 42 44 46 46 46 45 44 43 42 41 41 41 42 42 42 42 44 45 45 44 43 44 44 44 43 42 42 43 45 45 45 45 45 45 45 44 42 41 41 41
30 30 30 29 29 28 28 27 26 25 25 25 26 27 28 29 29 30 30 30 31 31 32 32 33 33 34 35 36 37 38 39 40 42 44 46 47 48 46 43 43 45 45 43 42 44 45 46 45 45 44 43 42 41 41 41 41 41 41 41 42 42 43 43 43 43 43 43 42 42 41 42 43 44 45 44 43 44 44 44 43 42 41 40 40
30 30 29 28 28 27 27 27 26 26 26 26 27 29 31 31 31 31 31 31 32 33 33 33 33 34 35 36 37 38 40 41 43 45 47 48 48 48 46 43 43 43 42 42 43 45 45 44 44 44 43 42 41 41 40 40 40 40 41 41 42 42 42 42 42 42 42 42 42 42 42 43 44 44 44 42 41 41 42 42 41 41 40 39 39
29 29 28 27 26 27 27 27 27 27 28 28 30 31 32 32 32 32 32 33 33 33 32 32 32 34 35 36 38 40 42 43 45 47 49 49 49 47 44 42 41 42 42 44 45 45 43 43 44 43 42 41 40 40 39 39 39 40 40 42 42 43 43 43 42 42 42 42 42 42 43 44 45 45 43 42 41 40 40 40 39 39 40 39 38
Wind_Direction
303 299 293 286 279 271 268 269 269 272 275 277 279 282 284 282 282 282 281 283 287 291 297 305 309 306 301 298 298 297 294 288 281 275 271 273 280 288 293 297 302 307 311 313 315 317 318 320 321 322 324 325 326 327 328 327 325 325 324 324 324 324 324 323 322 320 319 318 317 318 319 320 319 318 317 317 316 316 315 315 315 315 315 314 314
301 298 293 285 278 272 269 267 267 270 275 278 279 279 279 280 282 280 281 284 287 291 298 303 305 302 298 297 298 296 292 284 277 270 269 275 284 292 297 301 305 309 312 314 317 318 319 321 322 324 325 325 327 328 327 326 325 324 325 325 324 324 323 322 320 319 318 318 319 319 319 318 316 315 315 314 314 313 312 312 313 313 313 312 312
300 297 292 284 278 273 269 267 267 272 277 280 277 273 276 281 282 280 282 286 289 292 297 300 301 298 295 296 296 292 286 277 272 270 273 281 287 293 297 301 305 310 313 316 318 319 321 322 323 324 325 326 327 327 326 325 325 325 325 325 324 324 323 322 321 320 320 320 320 319 317 315 313 313 312 312 311 310 309 311 312 313 313 313 313
298 295 290 283 277 272 269 267 270 275 280 281 272 268 275 281 280 280 284 287 289 292 295 299 298 292 291 292 289 284 278 273 272 276 281 285 289 292 296 301 308 313 316 318 319 321 322 323 323 324 326 327 326 326 325 325 326 326 326 326 325 325 324 323 323 322 321 321 319 316 313 311 311 311 311 312 311 310 311 313 314 314 314 315 316
296 293 288 282 274 271 270 269 271 276 281 275 262 265 274 277 279 281 284 286 286 289 291 293 290 287 286 283 280 277 275 275 277 281 285 287 289 293 300 308 313 316 317 318 319 321 322 323 324 326 326 326 325 325 325 326 327 327 328 328 327 326 325 325 324 323 321 319 316 313 310 309 310 311 312 312 312 313 314 314 315 315 316 317 318
294 290 284 278 273 273 273 272 272 275 277 266 254 264 274 277 280 283 285 283 282 284 285 284 283 280 278 276 277 275 275 277 281 285 287 288 293 301 310 314 315 315 315 316 319 320 322 324 325 326 326 325 324 325 327 328 329 329 329 329 328 327 326 325 324 322 320 318 314 311 309 309 310 311 312 313 313 313 314 315 315 316 317 318 319
290 285 279 275 274 275 276 275 274 273 271 259 253 265 274 278 281 284 284 280 279 280 279 279 277 275 275 275 276 276 277 281 285 287 289 292 301 309 312 312 311 312 313 316 319 321 323 325 326 325 324 324 325 327 329 329 330 330 329 329 329 328 327 325 324 322 319 317 314 311 310 310 310 311 311 312 313 314 315 315 316 316 317 318 318
288 282 277 277 277 276 276 275 274 273 269 259 257 266 275 279 281 282 279 276 275 275 275 275 273 272 274 275 276 277 280 283 285 288 291 297 304 307 307 307 308 311 314 318 321 323 325 326 326 325 324 325 327 328 329 330 329 329 330 331 331 330 328 326 324 321 320 318 315 313 311 310 310 310 311 312 313 314 315 315 316 316 317 317 318
286 281 278 278 278 275 273 272 273 272 268 263 262 269 276 279 281 279 276 273 271 269 270 272 269 268 270 273 275 275 277 279 283 286 291 296 299 300 302 305 308 312 315 320 323 325 326 326 326 324 324 326 328 329 329 329 329 330 331 332 332 331 328 326 324 322 321 319 317 314 312 311 311 311 312 314 314 314 315 315 316 316 317 317 318
285 283 280 278 276 273 270 270 270 267 266 267 268 272 276 280 283 280 274 271 269 268 270 267 262 263 266 269 269 270 272 274 278 282 287 290 293 296 300 304 308 312 316 321 324 325 326 326 325 324 325 327 328 328 329 329 330 331 332 333 332 331 328 326 324 323 321 319 317 315 313 313 313 314 315 315 315 314 314 315 315 316 316 317 317
286 284 280 278 274 270 268 268 267 264 267 270 272 274 277 282 284 278 273 271 271 269 268 262 258 260 262 264 264 265 267 270 274 279 283 286 289 294 299 302 306 310 316 320 323 324 325 326 326 326 327 327 327 327 329 330 331 332 332 332 332 331 329 326 324 322 320 318 318 316 316 316 316 317 317 316 315 315 315 315 315 315 316 316 317
285 282 280 279 274 268 267 268 265 264 268 271 273 275 279 282 281 275 271 271 271 268 263 258 256 258 259 262 263 263 264 267 272 277 281 284 287 293 296 299 303 308 315 319 322 323 325 327 328 329 328 327 327 328 330 331 331 331 331 332 332 330 328 325 323 321 320 319 319 319 318 318 318 318 317 317 316 315 315 315 315 315 315 316 317
282 281 280 279 274 269 268 269 266 264 267 271 273 276 281 282 277 271 270 269 267 264 261 259 258 258 260 263 264 263 264 267 271 276 278 281 286 291 293 296 301 307 313 318 321 323 326 330 331 331 329 327 327 329 330 330 330 331 331 331 331 329 326 323 322 321 321 320 320 320 320 319 319 319 318 317 317 317 316 316 316 316 315 316 318
279 279 280 280 275 271 270 270 268 267 268 271 273 275 280 282 275 269 269 268 265 264 264 262 260 260 262 264 264 261 260 264 270 274 276 281 286 289 291 296 300 305 312 317 320 324 329 333 333 332 330 328 329 330 330 330 330 331 331 330 329 327 325 323 322 322 322 321 320 320 320 320 320 320 319 319 319 318 318 317 316 316 315 316 317
276 278 279 278 274 272 271 271 271 270 269 271 272 274 279 281 274 268 268 266 264 266 268 265 260 258 259 260 259 257 258 263 269 274 278 282 286 289 292 296 300 305 310 315 320 325 331 333 333 333 330 329 329 329 330 330 330 331 331 329 327 326 324 323 323 323 322 321 320 320 320 320 321 322 321 321 320 319 319 318 317 316 315 315 317
272 274 277 276 272 271 272 272 272 271 270 270 271 273 277 278 272 267 267 268 265 265 266 264 259 256 256 256 255 255 258 264 270 275 280 285 289 291 294 298 302 306 309 313 319 325 330 332 332 332 330 329 329 329 330 330 331 331 330 328 327 326 325 324 323 322 320 319 319 319 320 322 323 324 323 323 322 321 321 320 318 316 315 316 317
269 271 274 274 271 270 271 272 272 270 269 269 270 271 273 274 272 269 269 270 268 265 264 262 259 256 255 255 255 257 261 266 272 278 283 288 292 294 297 300 303 306 308 312 318 323 327 328 329 329 330 330 330 330 329 329 330 330 330 330 329 327 326 324 322 320 319 318 318 319 320 323 324 325 325 324 323 323 323 322 320 318 317 317 318
269 271 273 272 271 269 269 272 271 269 268 268 269 269 269 270 270 269 270 269 267 265 263 262 261 259 256 256 257 260 264 269 275 280 286 290 293 295 298 301 304 306 308 311 316 320 322 324 326 327 329 330 330 330 329 329 329 329 330 331 330 329 326 324 321 319 318 318 318 319 321 323 324 324 324 324 324 324 325 324 323 320 319 319 319
270 273 274 274 271 268 268 269 269 269 267 266 268 268 269 271 271 271 270 267 265 264 262 261 263 262 259 258 259 262 266 272 277 281 286 290 292 295 298 302 305 307 308 311 314 316 319 321 323 325 327 328 328 329 328 328 328 329 330 331 331 330 328 325 322 320 319 318 318 319 321 322 323 324 324 324 325 326 326 326 324 322 320 320 320
272 276 277 276 270 265 266 267 269 270 267 265 267 269 271 274 274 272 270 268 265 263 262 263 265 264 262 260 261 264 268 273 278 282 286 291 293 295 299 303 305 307 308 311 313 315 317 319 321 323 324 326 327 327 327 327 328 328 329 330 331 330 329 326 323 321 319 318 318 319 321 322 323 324 324 325 325 326 326 326 325 322 321 321 321
274 277 278 275 269 265 267 269 269 270 269 266 266 270 273 275 275 269 266 267 265 263 263 265 266 265 262 261 261 264 269 273 278 282 287 291 294 296 299 303 305 307 309 311 314 316 317 318 320 322 323 324 325 325 326 326 327 328 328 329 330 330 328 326 324 321 319 318 318 319 320 321 321 322 322 323 323 324 325 325 324 322 321 322 322
276 276 274 271 268 267 269 271 270 269 270 268 265 268 271 273 275 270 263 262 262 263 265 265 264 263 261 261 262 264 269 274 278 283 287 290 294 297 300 304 306 308 309 312 314 316 317 319 322 323 323 324 324 324 325 325 326 327 328 328 328 328 327 325 323 321 320 319 318 318 319 319 319 319 320 321 322 324 324 324 323 322 322 322 323
274 272 269 267 267 266 267 269 270 269 271 271 269 269 267 269 273 273 267 260 257 262 266 264 262 261 260 259 261 265 269 274 278 282 286 290 293 297 301 305 308 309 310 312 314 316 318 321 323 324 324 323 323 324 324 325 326 326 326 326 325 325 324 323 323 322 322 321 320 321 321 320 320 321 322 324 325 326 326 325 323 322 323 323 324
271 269 266 263 263 264 266 270 272 271 270 270 270 269 267 268 270 273 270 263 259 263 265 265 264 262 261 260 262 266 270 275 278 282 286 290 293 297 301 306 308 309 310 312 314 317 320 322 323 323 323 322 323 324 325 325 325 325 325 324 323 323 322 321 322 322 322 322 323 323 323 322 322 323 325 327 327 327 327 326 323 322 323 323 323
268 266 264 262 263 264 267 270 271 272 270 270 271 272 271 270 268 270 269 262 262 266 265 266 266 264 264 264 265 268 271 275 278 282 286 289 293 297 301 305 307 309 310 312 315 317 320 321 322 322 321 321 321 323 325 325 324 323 323 322 322 321 321 321 321 321 322 323 323 324 323 323 323 325 326 328 328 327 327 325 323 322 323 323 323
264 262 261 264 265 266 267 268 269 271 271 272 274 274 274 272 270 270 266 260 267 273 268 266 267 265 264 265 267 269 272 276 279 283 286 289 292 296 300 304 306 308 310 311 314 316 318 319 320 320 319 319 320 322 323 323 322 321 321 321 320 320 320 320 320 320 321 322 323 323 322 322 323 324 327 328 328 327 327 325 322 323 324 324 324
263 259 259 264 266 266 267 268 269 271 273 274 274 273 273 272 270 269 264 263 274 279 272 268 268 268 266 265 267 269 272 276 279 283 286 288 291 294 298 302 304 306 308 309 311 314 315 317 318 318 317 317 319 321 321 320 319 319 319 319 318 318 319 319 319 319 319 320 321 321 322 322 322 324 326 328 328 327 327 325 323 324 325 324 324
261 258 262 267 267 266 267 269 270 272 274 274 274 274 274 272 268 266 266 268 275 279 274 269 268 269 269 267 267 269 272 276 279 283 285 287 289 293 297 300 302 303 304 306 308 311 312 314 315 315 315 316 317 319 319 319 318 317 317 316 316 316 317 317 317 317 318 318 318 320 321 321 322 323 325 327 327 327 327 325 324 324 325 324 323
258 259 264 267 267 267 268 270 272 273 274 274 275 273 272 271 268 266 269 270 272 275 273 268 266 268 268 266 267 269 272 276 280 283 285 287 289 292 295 297 299 301 302 304 306 308 310 312 313 313 313 314 316 317 318 318 317 316 316 315 315 315 315 316 316 316 316 317 317 319 321 322 322 322 324 326 326 327 328 326 324 325 324 324 323
258 261 264 266 267 268 269 271 273 273 272 273 274 270 267 269 269 268 270 272 272 273 273 269 266 267 266 265 266 269 272 276 280 284 286 287 289 291 293 296 297 299 301 303 305 306 308 310 311 311 311 314 315 316 317 317 316 316 315 315 314 314 314 315 315 314 315 316 317 318 320 322 322 321 323 324 326 328 328 326 325 325 324 324 323
261 263 265 267 268 270 272 273 273 273 272 272 273 269 264 266 269 269 271 273 273 272 273 270 267 266 266 265 266 269 272 277 281 284 286 288 290 291 293 295 297 298 300 302 304 305 307 309 309 309 310 312 313 314 315 315 315 316 316 316 315 314 314 313 314 313 314 316 317 317 319 321 322 321 322 324 326 328 328 326 325 325 324 324 323
262 262 265 267 269 271 273 273 274 275 274 273 270 267 265 265 267 268 269 270 270 270 271 271 269 267 266 265 267 269 273 278 282 285 287 290 292 293 295 296 297 299 300 301 303 305 307 308 308 308 310 311 312 313 314 314 315 317 318 317 316 316 313 310 310 312 313 316 316 316 319 321 321 321 322 324 326 327 327 326 325 325 324 324 323
260 262 265 268 269 271 272 274 275 275 275 273 270 267 266 265 265 266 267 267 267 267 270 271 270 268 265 265 267 270 275 279 283 286 289 292 294 295 297 297 298 299 300 301 302 304 306 306 307 307 309 309 310 311 311 312 314 317 318 318 318 317 314 309 307 310 313 315 315 315 318 321 320 321 322 324 326 326 326 325 325 325 324 323 322
260 263 266 268 269 271 272 274 276 275 274 274 273 272 270 268 267 267 266 266 265 266 268 269 269 267 264 264 267 272 276 280 284 288 291 293 295 296 297 297 298 299 300 301 303 304 304 305 305 306 307 307 307 308 308 309 313 316 317 318 317 317 315 310 307 310 313 315 314 315 318 320 320 321 323 324 325 326 325 325 325 325 324 323 321
262 263 266 268 269 271 272 274 276 277 276 276 277 277 276 273 271 268 266 265 265 266 267 268 268 266 264 265 269 273 277 281 286 289 292 294 295 296 297 297 298 299 301 302 303 304 304 304 304 304 305 305 306 307 307 307 311 315 315 316 316 316 315 311 308 311 314 314 314 315 318 320 321 322 323 324 325 325 324 324 324 324 323 322 320
262 263 266 268 269 271 272 274 276 278 278 278 280 280 278 275 272 269 268 267 266 267 268 268 268 267 267 269 272 276 279 283 287 290 292 293 295 296 297 297 299 302 303 305 306 306 304 302 302 303 305 305 306 307 306 305 309 312 312 314 317 316 313 310 310 313 314 313 314 316 319 321 322 322 323 324 325 324 324 324 324 324 323 321 320
261 263 266 268 269 270 272 274 276 277 279 281 282 281 278 275 272 270 268 267 267 268 269 270 269 270 271 274 276 279 282 286 289 291 292 294 295 296 297 299 302 304 306 308 309 309 307 304 303 304 307 309 310 309 307 307 309 309 310 315 316 313 310 310 311 314 314 314 316 319 322 322 322 323 324 324 325 324 324 323 323 323 322 321 320
260 263 265 267 268 270 272 273 274 277 279 281 282 282 279 275 271 269 269 269 270 271 272 272 272 273 274 277 280 283 287 290 292 293 295 296 296 297 298 300 303 305 307 310 312 313 313 312 309 309 311 314 313 310 308 309 309 307 310 315 315 311 309 311 313 315 315 316 319 321 322 322 322 323 323 324 324 324 324 323 323 323 322 320 319
260 262 264 266 267 269 271 272 273 276 279 281 282 281 279 276 273 271 271 272 274 275 276 276 276 277 279 282 285 288 291 293 294 296 296 297 297 297 298 300 303 305 308 311 313 314 316 316 313 311 312 314 313 311 309 309 308 307 312 315 312 309 311 313 315 316 318 319 320 320 320 321 322 323 323 324 324 323 323 323 323 323 322 320 320
258 261 264 265 267 268 269 271 272 275 278 280 280 279 278 277 274 273 274 275 277 278 279 279 280 282 284 286 289 291 293 294 295 296 297 298 299 298 298 301 304 306 308 310 312 314 316 316 313 310 310 311 310 310 309 308 307 309 312 312 310 311 315 316 316 317 319 320 319 319 319 321 323 323 323 323 323 323 323 323 324 323 322 320 319
257 261 264 265 266 266 268 270 272 275 277 279 279 278 277 276 275 275 276 278 281 281 282 283 284 286 288 289 290 291 293 294 295 297 298 299 301 302 303 305 306 307 308 310 312 314 317 317 316 313 311 310 309 308 307 307 307 310 312 311 311 314 316 316 316 318 319 319 318 318 319 321 322 322 322 322 322 322 323 324 324 324 322 321 320
257 261 263 264 265 266 267 269 271 275 277 277 277 276 275 274 275 277 279 282 284 284 285 286 287 289 290 291 291 292 293 295 296 297 298 299 303 307 309 309 308 308 309 310 311 313 315 316 316 315 313 312 311 310 309 309 311 312 311 310 312 314 315 316 317 317 317 317 317 317 318 320 321 321 321 321 321 322 323 324 324 323 322 322 322
257 261 262 263 264 265 266 268 271 274 276 275 274 274 274 274 276 279 283 285 286 287 288 289 290 292 293 294 294 294 295 296 297 297 299 301 304 307 308 308 308 308 308 308 309 311 313 314 315 314 313 313 313 313 313 314 314 312 310 311 313 314 315 316 316 315 315 315 316 316 318 320 321 321 320 320 320 322 323 324 324 324 323 323 323
256 259 261 263 264 265 266 268 270 273 274 274 274 274 275 277 280 283 286 287 289 290 291 292 293 294 296 297 297 296 297 298 298 299 300 302 305 307 308 309 309 309 308 308 309 311 312 313 312 312 313 314 315 315 315 316 315 312 311 311 313 314 314 315 314 313 313 314 315 316 318 320 321 320 319 320 321 322 323 324 324 324 324 324 325
255 258 261 263 264 265 266 267 270 273 275 274 275 276 278 281 284 287 288 289 290 292 293 294 295 296 297 298 298 298 298 298 298 299 301 302 305 307 309 310 310 309 308 308 309 311 311 311 311 312 314 315 316 316 316 316 314 313 312 312 313 314 315 315 314 313 313 314 315 316 318 320 320 319 320 321 322 323 324 324 324 324 324 325 326
254 258 260 262 264 265 266 268 271 273 274 275 277 279 281 283 286 288 289 290 292 293 295 296 297 297 298 298 298 297 297 297 298 299 301 303 306 308 310 310 310 308 307 308 309 310 310 311 312 313 315 316 316 316 316 315 314 313 312 313 314 315 315 315 314 313 314 314 314 315 317 319 319 319 320 321 323 324 324 325 325 324 323 324 326
253 256 260 262 264 266 267 269 271 272 274 276 278 280 282 284 286 288 289 291 293 294 295 296 297 297 298 298 296 295 295 296 297 299 301 303 306 308 309 309 308 307 307 308 309 309 310 311 312 314 315 316 316 316 315 314 313 313 314 315 315 315 315 315 315 314 314 315 316 317 318 319 319 320 321 322 323 324 324 324 324 323 323 324 327
253 257 260 262 263 265 267 269 270 272 274 275 277 280 282 284 286 288 290 292 293 294 295 296 297 297 297 295 294 294 294 295 297 299 301 303 305 307 308 307 306 305 306 307 308 309 311 312 312 313 314 315 314 313 312 313 313 314 314 314 314 314 315 315 315 315 316 317 319 320 320 319 320 320 321 322 323 324 324 324 323 322 323 325 328
254 257 259 260 262 264 266 268 269 270 272 275 277 279 281 283 285 287 289 291 292 292 293 295 297 297 295 294 293 293 294 295 297 298 300 302 304 305 306 305 304 305 305 306 307 310 311 312 312 312 313 313 312 311 311 312 313 313 313 314 314 315 316 316 316 316 317 319 320 320 319 319 321 322 322 323 324 324 324 323 322 321 322 325 329
253 256 258 260 262 264 266 267 268 269 271 274 276 278 280 283 285 287 290 291 291 293 295 296 296 295 293 293 294 294 294 295 296 298 300 302 304 304 305 304 303 304 305 306 308 310 311 311 311 311 311 311 310 311 311 312 312 313 313 314 315 316 316 316 316 316 316 318 319 319 319 320 321 323 324 324 325 325 324 323 321 319 321 325 331
253 255 257 259 261 263 265 266 267 268 270 274 276 278 280 282 285 288 290 291 292 294 297 297 295 294 293 294 294 293 294 296 298 300 302 303 304 304 304 303 302 303 305 306 308 309 309 309 310 310 310 310 310 311 311 312 313 314 314 315 316 316 317 316 316 316 316 316 317 318 319 320 322 323 323 324 325 325 324 322 321 320 321 326 332
Height
5854 5854 5853 5852 5852 5851 5851 5850 5850 5850 5850 5849 5849 5848 5848 5847 5847 5847 5845 5844 5844 5844 5843 5843 5843 5843 5842 5842 5842 5842 5842 5842 5842 5841 5841 5840 5840 5839 5838 5838 5837 5836 5835 5834 5833 5832 5831 5830 5829 5827 5826 5824 5823 5821 5820 5818 5817 5815 5814 5812 5810 5809 5807 5806 5804 5802 5800 5799 5797 5796 5794 5792 5791 5790 5788 5787 5786 5784 5783 5781 5779 5778 5776 5774 5773
5853 5852 5852 5851 5850 5849 5849 5849 5849 5848 5848 5848 5847 5847 5846 5846 5846 5845 5844 5843 5843 5842 5842 5842 5841 5841 5841 5841 5840 5841 5841 5840 5840 5840 5840 5839 5839 5838 5837 5836 5835 5835 5834 5833 5832 5831 5829 5828 5827 5826 5824 5823 5821 5819 5818 5816 5815 5813 5812 5810 5809 5807 5805 5804 5802 5800 5798 5797 5795 5794 5792 5791 5789 5788 5787 5785 5784 5782 5781 5779 5777 5775 5774 5772 5770
5851 5851 5850 5849 5849 5848 5848 5848 5847 5847 5846 5846 5846 5845 5845 5845 5844 5844 5843 5842 5842 5841 5841 5841 5840 5840 5839 5839 5839 5839 5839 5839 5839 5839 5838 5838 5837 5837 5836 5835 5834 5833 5833 5832 5830 5829 5828 5827 5826 5824 5823 5821 5819 5818 5816 5815 5813 5812 5810 5809 5807 5805 5804 5802 5800 5798 5796 5794 5793 5792 5790 5789 5788 5786 5785 5783 5782 5780 5779 5777 5775 5773 5771 5768 5766
5849 5849 5848 5847 5847 5847 5847 5846 5845 5845 5845 5845 5845 5844 5844 5843 5843 5842 5841 5841 5840 5840 5840 5840 5839 5839 5838 5838 5838 5838 5838 5838 5837 5837 5837 5836 5836 5835 5835 5834 5833 5832 5831 5830 5829 5828 5827 5825 5824 5822 5821 5819 5818 5816 5814 5813 5812 5810 5809 5807 5805 5803 5801 5799 5797 5796 5794 5792 5791 5789 5788 5787 5786 5784 5783 5781 5779 5778 5776 5774 5772 5770 5767 5765 5763
5847 5847 5846 5846 5846 5846 5845 5845 5844 5844 5844 5844 5843 5843 5843 5842 5841 5840 5840 5840 5839 5839 5839 5839 5838 5837 5837 5837 5837 5837 5837 5836 5836 5836 5835 5835 5834 5834 5833 5832 5831 5830 5829 5828 5827 5826 5825 5824 5823 5821 5819 5817 5816 5814 5813 5812 5810 5809 5807 5805 5803 5801 5799 5797 5795 5793 5791 5790 5788 5787 5786 5784 5783 5782 5780 5778 5776 5774 5772 5770 5768 5766 5763 5761 5758
5846 5845 5845 5844 5844 5844 5843 5843 5842 5842 5842 5842 5842 5842 5841 5840 5840 5839 5839 5838 5838 5838 5838 5837 5837 5836 5836 5836 5836 5836 5836 5835 5835 5834 5834 5833 5833 5832 5831 5830 5830 5829 5828 5827 5826 5825 5824 5822 5821 5819 5817 5816 5814 5813 5812 5810 5808 5807 5805 5803 5801 5798 5796 5794 5792 5791 5789 5787 5786 5785 5783 5782 5780 5779 5777 5775 5773 5771 5769 5767 5764 5762 5759 5757 5754
5844 5844 5843 5843 5843 5842 5841 5841 5841 5841 5841 5841 5840 5840 5840 5839 5839 5838 5837 5837 5836 5836 5836 5836 5835 5835 5834 5834 5834 5834 5834 5833 5833 5833 5832 5831 5831 5830 5829 5829 5829 5828 5828 5827 5825 5824 5822 5821 5819 5817 5816 5814 5813 5811 5810 5808 5807 5805 5802 5800 5798 5796 5794 5792 5790 5788 5787 5785 5783 5782 5780 5779 5777 5776 5774 5772 5770 5768 5765 5763 5760 5758 5755 5752 5750
5843 5842 5842 5841 5841 5840 5840 5839 5839 5839 5839 5839 5839 5839 5838 5838 5838 5837 5836 5835 5835 5834 5834 5834 5833 5833 5833 5833 5833 5832 5832 5832 5832 5831 5830 5830 5829 5828 5828 5828 5827 5827 5826 5825 5824 5822 5821 5819 5818 5816 5814 5813 5811 5810 5808 5807 5805 5802 5800 5798 5796 5794 5792 5790 5788 5786 5784 5783 5781 5779 5778 5776 5775 5773 5771 5769 5766 5764 5762 5759 5757 5754 5751 5748 5745
5841 5841 5840 5839 5839 5838 5838 5837 5837 5838 5837 5838 5837 5837 5837 5836 5837 5836 5835 5834 5834 5833 5833 5832 5832 5832 5831 5831 5831 5831 5831 5831 5830 5830 5829 5828 5828 5827 5827 5826 5826 5825 5824 5823 5822 5820 5819 5818 5816 5815 5813 5811 5810 5808 5807 5805 5803 5800 5798 5796 5794 5792 5790 5788 5786 5784 5782 5780 5779 5777 5775 5774 5772 5770 5767 5765 5763 5760 5758 5756 5753 5750 5747 5744 5741
5840 5839 5838 5838 5837 5837 5836 5836 5836 5836 5836 5836 5836 5836 5835 5835 5835 5834 5834 5833 5832 5831 5831 5830 5830 5830 5830 5830 5830 5830 5830 5830 5829 5828 5828 5827 5826 5826 5825 5825 5824 5824 5823 5822 5820 5819 5817 5816 5815 5813 5811 5810 5808 5807 5805 5803 5801 5798 5796 5793 5791 5789 5787 5785 5784 5782 5780 5778 5777 5775 5773 5771 5769 5767 5764 5762 5759 5757 5754 5752 5749 5746 5743 5740 5736
5838 5837 5837 5836 5836 5835 5835 5834 5835 5835 5835 5834 5834 5834 5834 5834 5833 5832 5832 5831 5830 5829 5829 5829 5829 5829 5829 5829 5829 5829 5829 5828 5828 5827 5826 5826 5825 5825 5824 5824 5823 5822 5821 5820 5819 5817 5816 5815 5813 5811 5809 5808 5807 5805 5803 5801 5798 5796 5794 5791 5789 5787 5785 5783 5781 5780 5778 5776 5774 5772 5770 5768 5765 5763 5761 5758 5756 5753 5751 5748 5745 5742 5739 5736 5732
5836 5836 5835 5835 5835 5834 5833 5833 5833 5834 5833 5833 5833 5833 5833 5832 5832 5831 5830 5829 5828 5828 5827 5827 5827 5827 5827 5827 5827 5827 5827 5827 5826 5826 5825 5825 5824 5824 5823 5822 5822 5821 5820 5819 5817 5816 5815 5813 5811 5809 5808 5806 5805 5803 5800 5798 5796 5794 5791 5789 5787 5785 5783 5781 5779 5778 5776 5773 5771 5769 5767 5765 5762 5760 5758 5755 5752 5750 5747 5744 5741 5738 5734 5731 5727
5835 5834 5834 5833 5833 5832 5831 5831 5832 5832 5832 5832 5831 5831 5831 5831 5830 5829 5828 5828 5827 5827 5826 5826 5826 5826 5826 5826 5826 5826 5826 5825 5825 5824 5824 5823 5823 5822 5822 5821 5820 5820 5819 5817 5816 5815 5813 5812 5809 5808 5806 5805 5803 5801 5799 5796 5794 5792 5789 5787 5784 5783 5781 5779 5777 5775 5773 5771 5768 5766 5764 5762 5759 5757 5755 5752 5749 5746 5743 5740 5736 5733 5730 5726 5723
5833 5833 5832 5831 5831 5830 5830 5830 5830 5830 5830 5830 5830 5829 5829 5829 5828 5828 5826 5826 5825 5825 5825 5825 5824 5824 5824 5824 5824 5824 5824 5824 5823 5823 5823 5822 5821 5821 5820 5819 5819 5818 5817 5816 5815 5813 5811 5809 5807 5806 5805 5803 5801 5799 5797 5794 5792 5790 5787 5785 5782 5780 5778 5776 5774 5772 5770 5768 5765 5763 5761 5759 5757 5754 5751 5748 5745 5742 5739 5736 5732 5729 5726 5722 5719
5831 5831 5830 5830 5829 5828 5828 5828 5828 5828 5828 5828 5828 5827 5827 5826 5826 5826 5825 5824 5824 5823 5823 5823 5823 5822 5822 5822 5822 5822 5822 5822 5822 5821 5821 5820 5820 5819 5818 5818 5817 5816 5815 5814 5813 5811 5809 5807 5806 5804 5803 5801 5799 5797 5795 5792 5790 5787 5785 5783 5780 5778 5776 5774 5772 5769 5767 5765 5763 5760 5758 5756 5753 5750 5747 5744 5741 5738 5735 5732 5728 5725 5721 5718 5714
5829 5829 5828 5828 5827 5827 5827 5826 5826 5826 5826 5826 5826 5825 5825 5824 5824 5824 5824 5823 5822 5822 5822 5821 5821 5820 5820 5820 5820 5820 5820 5820 5819 5819 5819 5818 5818 5817 5816 5816 5815 5814 5813 5812 5811 5809 5807 5805 5804 5803 5801 5799 5797 5795 5792 5790 5788 5785 5783 5781 5778 5776 5773 5771 5769 5767 5765 5762 5760 5758 5755 5753 5750 5747 5744 5741 5738 5734 5731 5728 5724 5721 5717 5714 5710
5827 5827 5827 5826 5826 5826 5825 5825 5824 5824 5824 5824 5824 5823 5823 5822 5822 5822 5822 5822 5821 5820 5820 5819 5819 5818 5818 5818 5818 5818 5818 5818 5817 5817 5816 5816 5815 5815 5814 5813 5812 5812 5811 5810 5808 5807 5805 5803 5802 5801 5799 5797 5795 5792 5790 5788 5786 5783 5781 5779 5776 5774 5771 5769 5766 5764 5762 5760 5757 5755 5752 5749 5746 5743 5740 5737 5734 5731 5727 5724 5720 5716 5713 5709 5705
5824 5825 5825 5824 5824 5824 5823 5823 5822 5822 5822 5822 5822 5821 5821 5820 5820 5820 5820 5820 5819 5818 5818 5817 5817 5816 5816 5816 5816 5816 5816 5815 5815 5815 5814 5814 5813 5813 5812 5811 5810 5810 5809 5807 5806 5804 5803 5801 5800 5798 5797 5795 5792 5790 5788 5786 5784 5781 5779 5776 5774 5772 5769 5767 5764 5762 5759 5757 5754 5752 5749 5746 5743 5740 5737 5733 5730 5726 5723 5719 5716 5712 5708 5705 5701
5822 5822 5823 5822 5822 5822 5821 5821 5820 5820 5820 5819 5819 5819 5818 5818 5818 5818 5818 5817 5817 5816 5815 5815 5815 5814 5814 5814 5814 5814 5814 5813 5813 5813 5812 5812 5811 5811 5810 5809 5808 5807 5806 5805 5804 5802 5800 5799 5797 5796 5794 5793 5790 5788 5786 5784 5781 5779 5776 5774 5772 5769 5767 5764 5762 5759 5756 5753 5751 5748 5746 5743 5740 5736 5733 5729 5726 5722 5719 5715 5711 5708 5704 5700 5696
5820 5820 5820 5820 5819 5819 5819 5818 5818 5818 5817 5817 5817 5816 5816 5816 5816 5815 5815 5815 5814 5813 5813 5813 5813 5813 5812 5813 5813 5812 5812 5811 5811 5811 5810 5810 5809 5809 5808 5807 5806 5805 5804 5802 5801 5800 5798 5797 5795 5794 5792 5790 5788 5786 5784 5781 5778 5776 5774 5771 5769 5767 5764 5762 5759 5756 5754 5751 5748 5745 5743 5740 5736 5733 5729 5725 5722 5718 5715 5711 5707 5703 5700 5696 5692
5818 5817 5817 5817 5816 5816 5816 5816 5816 5816 5815 5815 5815 5814 5813 5813 5812 5812 5812 5812 5812 5811 5811 5811 5810 5810 5810 5810 5810 5810 5810 5809 5809 5809 5808 5808 5807 5807 5806 5805 5804 5802 5801 5800 5798 5797 5796 5794 5793 5791 5790 5788 5786 5783 5781 5779 5776 5773 5771 5769 5766 5764 5762 5759 5756 5754 5751 5748 5745 5742 5739 5736 5732 5729 5725 5721 5718 5714 5710 5706 5702 5699 5695 5691 5687
5816 5815 5815 5814 5814 5814 5813 5813 5813 5813 5813 5813 5813 5812 5811 5810 5810 5810 5809 5809 5809 5809 5809 5808 5808 5808 5808 5808 5808 5808 5808 5807 5807 5807 5806 5806 5805 5804 5803 5803 5801 5800 5799 5797 5796 5795 5793 5791 5790 5788 5787 5785 5783 5781 5778 5776 5773 5770 5768 5766 5763 5761 5759 5756 5754 5751 5748 5745 5742 5739 5736 5732 5728 5725 5721 5717 5713 5709 5705 5701 5698 5694 5690 5687 5683
5813 5813 5813 5812 5812 5812 5811 5811 5811 5811 5811 5810 5810 5810 5809 5808 5808 5808 5807 5806 5807 5807 5807 5806 5806 5806 5806 5806 5806 5806 5806 5805 5805 5805 5804 5804 5803 5802 5801 5800 5799 5798 5796 5795 5793 5792 5790 5789 5787 5786 5784 5782 5780 5778 5776 5773 5770 5768 5765 5763 5761 5758 5756 5754 5751 5748 5745 5741 5738 5735 5732 5728 5724 5720 5716 5713 5709 5705 5701 5697 5693 5689 5686 5682 5678
5811 5811 5810 5810 5810 5810 5809 5809 5808 5809 5808 5808 5807 5807 5807 5807 5806 5805 5805 5804 5805 5805 5805 5804 5804 5804 5804 5804 5804 5804 5804 5803 5803 5802 5802 5801 5800 5800 5799 5798 5797 5795 5794 5792 5791 5789 5788 5786 5785 5783 5781 5779 5777 5775 5773 5770 5767 5765 5762 5760 5758 5755 5753 5750 5747 5744 5741 5737 5734 5731 5728 5724 5721 5716 5712 5708 5704 5700 5696 5692 5688 5685 5681 5678 5674
5808 5808 5808 5808 5808 5807 5807 5806 5806 5806 5806 5805 5805 5804 5804 5804 5803 5803 5803 5803 5803 5803 5802 5802 5802 5802 5802 5802 5802 5802 5801 5801 5800 5800 5799 5799 5798 5797 5796 5795 5794 5793 5791 5790 5788 5787 5785 5783 5782 5780 5778 5776 5774 5772 5770 5767 5764 5762 5759 5757 5754 5752 5749 5746 5744 5740 5737 5733 5730 5727 5724 5721 5717 5712 5708 5704 5700 5696 5692 5688 5684 5681 5677 5673 5670
5805 5806 5806 5805 5805 5805 5804 5804 5804 5804 5804 5803 5802 5802 5801 5801 5801 5800 5801 5801 5801 5800 5800 5800 5800 5800 5800 5799 5800 5800 5799 5799 5798 5797 5797 5796 5795 5794 5793 5793 5792 5790 5789 5787 5785 5784 5782 5781 5779 5777 5775 5772 5770 5769 5767 5764 5761 5759 5756 5753 5750 5748 5745 5743 5739 5736 5733 5729 5726 5723 5720 5717 5713 5708 5704 5700 5696 5692 5688 5684 5680 5677 5673 5669 5665
5803 5803 5804 5803 5803 5802 5802 5802 5802 5802 5801 5801 5800 5799 5799 5799 5798 5798 5798 5798 5798 5798 5798 5798 5798 5798 5798 5797 5797 5797 5797 5796 5795 5795 5794 5794 5793 5792 5791 5790 5789 5788 5786 5784 5783 5781 5779 5778 5776 5774 5771 5769 5767 5765 5764 5761 5758 5755 5753 5750 5747 5744 5741 5739 5735 5732 5729 5725 5722 5719 5716 5712 5708 5704 5700 5695 5692 5688 5684 5680 5676 5672 5668 5665 5661
5801 5801 5801 5801 5800 5800 5799 5799 5799 5799 5799 5798 5798 5797 5796 5795 5795 5795 5796 5796 5796 5796 5796 5795 5795 5795 5795 5795 5795 5795 5794 5794 5793 5793 5792 5791 5790 5789 5788 5787 5786 5785 5783 5782 5780 5778 5776 5775 5773 5771 5768 5766 5764 5762 5760 5758 5755 5752 5749 5746 5743 5740 5737 5735 5732 5728 5724 5721 5718 5715 5712 5708 5704 5700 5695 5691 5687 5684 5680 5676 5672 5668 5664 5661 5657
5798 5798 5799 5798 5798 5797 5797 5797 5797 5797 5797 5796 5795 5795 5794 5793 5793 5793 5793 5793 5794 5794 5793 5793 5793 5793 5793 5793 5792 5792 5792 5791 5791 5790 5790 5789 5788 5787 5786 5784 5783 5781 5780 5778 5777 5775 5773 5771 5770 5767 5765 5762 5760 5758 5756 5754 5751 5748 5745 5743 5740 5736 5733 5731 5728 5724 5721 5717 5713 5710 5707 5703 5699 5695 5691 5687 5683 5679 5675 5671 5668 5664 5660 5657 5653
5796 5796 5796 5796 5795 5795 5795 5795 5795 5795 5794 5793 5793 5793 5793 5792 5792 5792 5791 5791 5791 5791 5791 5790 5790 5790 5790 5790 5790 5790 5789 5789 5789 5788 5787 5786 5785 5784 5783 5782 5780 5778 5777 5775 5773 5772 5770 5768 5766 5763 5761 5759 5756 5754 5752 5750 5747 5744 5741 5739 5736 5732 5729 5727 5724 5720 5717 5713 5709 5706 5703 5699 5695 5691 5687 5683 5679 5675 5671 5667 5664 5660 5656 5653 5649
5794 5794 5794 5794 5793 5792 5792 5792 5792 5792 5792 5791 5791 5791 5791 5790 5790 5789 5789 5789 5788 5788 5788 5788 5788 5788 5788 5787 5787 5787 5787 5787 5786 5785 5784 5783 5782 5781 5780 5779 5777 5775 5774 5772 5770 5768 5766 5764 5762 5759 5757 5755 5752 5750 5748 5745 5743 5740 5737 5734 5731 5728 5725 5722 5719 5716 5713 5708 5704 5701 5699 5695 5691 5687 5683 5679 5675 5671 5667 5663 5660 5656 5653 5649 5645
5791 5791 5791 5791 5791 5790 5790 5790 5790 5790 5789 5789 5788 5788 5788 5787 5787 5787 5786 5786 5786 5785 5785 5785 5785 5785 5785 5785 5785 5785 5785 5784 5783 5782 5781 5780 5779 5778 5777 5775 5774 5772 5770 5768 5766 5764 5763 5760 5758 5755 5753 5750 5748 5746 5743 5741 5739 5736 5733 5729 5726 5723 5720 5718 5715 5712 5708 5704 5700 5697 5694 5690 5687 5683 5679 5675 5671 5667 5663 5660 5656 5652 5649 5645 5641
5789 5789 5789 5789 5788 5788 5787 5787 5787 5787 5787 5786 5785 5785 5785 5785 5784 5784 5783 5783 5783 5782 5782 5782 5782 5782 5782 5782 5782 5782 5782 5781 5780 5779 5778 5777 5776 5775 5773 5772 5770 5768 5766 5764 5762 5760 5759 5756 5753 5751 5749 5746 5744 5741 5739 5736 5734 5731 5728 5725 5722 5718 5715 5713 5710 5707 5704 5700 5696 5693 5690 5686 5682 5679 5675 5671 5667 5663 5659 5656 5652 5648 5645 5641 5637
5786 5786 5786 5786 5786 5785 5785 5785 5785 5785 5784 5783 5783 5783 5782 5782 5781 5781 5780 5780 5780 5780 5779 5779 5779 5779 5779 5779 5780 5780 5779 5778 5777 5776 5775 5774 5773 5771 5770 5768 5766 5764 5762 5760 5759 5756 5754 5752 5749 5747 5744 5742 5739 5737 5734 5731 5729 5727 5724 5720 5717 5714 5710 5707 5706 5703 5699 5696 5692 5689 5685 5682 5679 5675 5671 5667 5663 5659 5655 5652 5648 5644 5641 5637 5633
5783 5783 5784 5783 5783 5783 5783 5782 5782 5782 5782 5781 5780 5780 5779 5779 5778 5778 5777 5777 5777 5777 5776 5777 5777 5777 5777 5777 5777 5777 5776 5776 5775 5773 5772 5771 5770 5768 5766 5765 5763 5761 5759 5757 5755 5752 5750 5747 5744 5742 5740 5737 5734 5732 5729 5726 5724 5721 5718 5715 5712 5709 5705 5702 5701 5698 5695 5691 5688 5685 5681 5678 5674 5670 5666 5662 5659 5655 5651 5648 5644 5640 5637 5633 5629
5780 5781 5781 5781 5780 5780 5780 5780 5779 5779 5779 5779 5778 5777 5777 5776 5775 5775 5774 5774 5774 5774 5774 5774 5774 5775 5775 5775 5775 5774 5773 5773 5772 5771 5769 5768 5766 5765 5763 5761 5759 5757 5755 5752 5750 5748 5745 5742 5739 5737 5734 5732 5729 5727 5725 5722 5720 5717 5713 5710 5706 5703 5700 5698 5696 5693 5690 5687 5684 5680 5677 5673 5670 5666 5662 5658 5655 5651 5647 5644 5640 5636 5632 5629 5625
5778 5778 5778 5778 5778 5778 5777 5777 5777 5776 5776 5776 5775 5775 5774 5773 5773 5772 5772 5772 5772 5772 5772 5772 5772 5773 5773 5773 5772 5771 5770 5770 5769 5767 5766 5765 5763 5761 5759 5757 5755 5753 5751 5748 5746 5743 5740 5737 5734 5732 5730 5727 5724 5722 5719 5717 5715 5712 5709 5706 5701 5698 5695 5694 5692 5688 5685 5682 5679 5675 5672 5669 5665 5662 5658 5654 5651 5647 5643 5640 5636 5632 5628 5625 5621
5775 5775 5775 5775 5775 5775 5775 5775 5774 5774 5773 5773 5772 5772 5771 5770 5770 5770 5770 5770 5770 5770 5770 5770 5770 5770 5770 5770 5769 5768 5767 5767 5766 5764 5763 5761 5759 5757 5755 5753 5751 5749 5747 5745 5742 5739 5736 5732 5730 5728 5726 5723 5720 5717 5715 5712 5709 5706 5704 5701 5698 5694 5690 5688 5687 5684 5681 5678 5674 5670 5668 5665 5661 5657 5654 5650 5646 5643 5639 5636 5632 5628 5624 5620 5617
5772 5772 5772 5772 5772 5772 5772 5772 5772 5771 5771 5770 5769 5769 5768 5768 5768 5768 5768 5768 5768 5768 5768 5768 5768 5768 5767 5767 5766 5765 5764 5763 5762 5761 5759 5757 5755 5753 5750 5748 5747 5745 5743 5741 5738 5735 5731 5728 5726 5724 5722 5719 5716 5713 5711 5708 5705 5701 5698 5695 5693 5691 5687 5683 5680 5679 5676 5673 5669 5666 5663 5661 5657 5653 5649 5646 5642 5639 5635 5631 5628 5624 5620 5616 5613
5769 5769 5770 5770 5770 5770 5770 5770 5769 5769 5768 5768 5767 5767 5766 5766 5766 5766 5767 5767 5766 5766 5766 5766 5765 5765 5765 5764 5763 5762 5761 5760 5759 5757 5755 5753 5751 5749 5746 5744 5743 5741 5739 5736 5734 5730 5727 5725 5722 5720 5718 5715 5712 5710 5707 5704 5701 5698 5694 5691 5688 5686 5683 5679 5675 5673 5671 5669 5666 5662 5659 5656 5653 5649 5645 5642 5638 5635 5631 5627 5623 5620 5616 5613 5609
5766 5767 5767 5767 5767 5767 5767 5767 5767 5766 5766 5765 5765 5765 5764 5764 5764 5764 5764 5764 5764 5764 5763 5763 5763 5762 5762 5761 5760 5759 5757 5756 5755 5753 5751 5749 5747 5745 5743 5741 5739 5737 5735 5732 5729 5726 5724 5721 5718 5716 5713 5711 5708 5706 5703 5700 5697 5694 5691 5688 5685 5681 5678 5675 5672 5669 5667 5664 5662 5659 5655 5652 5649 5645 5642 5638 5635 5631 5627 5623 5620 5616 5612 5609 5605
5763 5764 5764 5764 5764 5764 5764 5764 5764 5763 5763 5763 5762 5762 5762 5762 5762 5762 5762 5762 5762 5761 5761 5761 5760 5759 5758 5757 5756 5755 5754 5752 5751 5749 5747 5745 5744 5742 5740 5738 5735 5733 5730 5728 5725 5722 5720 5717 5715 5712 5709 5707 5704 5701 5698 5695 5693 5690 5687 5684 5682 5678 5675 5672 5669 5666 5663 5660 5657 5655 5652 5649 5645 5642 5638 5634 5631 5628 5624 5619 5616 5612 5608 5604 5600
5761 5761 5761 5761 5761 5761 5761 5761 5761 5760 5760 5760 5760 5760 5759 5759 5759 5759 5759 5759 5759 5759 5758 5757 5757 5756 5755 5753 5752 5751 5750 5748 5747 5745 5743 5742 5740 5739 5737 5734 5732 5729 5727 5724 5721 5718 5716 5713 5711 5708 5705 5703 5700 5696 5694 5691 5688 5686 5684 5681 5678 5675 5672 5669 5665 5662 5659 5656 5653 5651 5648 5645 5642 5638 5635 5631 5627 5623 5620 5616 5612 5608 5604 5600 5596
5758 5758 5758 5758 5759 5759 5759 5758 5758 5757 5757 5757 5757 5757 5757 5756 5756 5757 5757 5756 5756 5755 5754 5754 5753 5752 5751 5750 5748 5747 5746 5744 5742 5740 5739 5738 5736 5734 5732 5730 5727 5725 5722 5720 5717 5714 5712 5709 5706 5704 5701 5699 5696 5692 5689 5687 5685 5682 5680 5677 5675 5672 5669 5666 5663 5659 5656 5653 5650 5646 5644 5641 5638 5634 5630 5627 5623 5619 5615 5612 5608 5604 5600 5597 5593
5755 5755 5755 5756 5756 5756 5756 5755 5755 5754 5754 5754 5754 5754 5754 5754 5754 5754 5754 5753 5752 5752 5751 5750 5750 5749 5748 5746 5744 5743 5742 5740 5738 5737 5735 5734 5732 5730 5728 5725 5722 5720 5717 5715 5713 5710 5708 5705 5702 5699 5697 5694 5691 5688 5686 5683 5681 5679 5676 5673 5671 5668 5665 5663 5660 5656 5653 5650 5646 5643 5640 5637 5634 5630 5626 5623 5619 5616 5612 5608 5604 5600 5597 5593 5590
5752 5752 5752 5752 5753 5753 5752 5752 5752 5752 5752 5751 5751 5751 5751 5751 5751 5751 5750 5750 5749 5748 5747 5747 5746 5745 5744 5742 5740 5739 5737 5736 5734 5733 5731 5729 5727 5725 5723 5721 5718 5715 5713 5710 5708 5706 5703 5701 5698 5695 5692 5690 5687 5684 5682 5679 5677 5675 5672 5669 5667 5664 5661 5659 5656 5653 5649 5646 5643 5639 5636 5632 5629 5625 5622 5618 5615 5612 5608 5604 5600 5597 5593 5590 5587
5748 5748 5749 5749 5750 5750 5749 5750 5749 5749 5749 5749 5748 5748 5748 5748 5748 5747 5747 5746 5745 5745 5744 5743 5742 5741 5740 5738 5736 5734 5733 5731 5730 5729 5727 5725 5723 5721 5718 5716 5713 5711 5708 5706 5704 5701 5699 5696 5693 5691 5688 5686 5683 5681 5678 5676 5673 5671 5668 5665 5662 5660 5657 5654 5651 5649 5645 5642 5639 5636 5632 5629 5625 5621 5617 5614 5611 5608 5604 5601 5597 5593 5590 5587 5583
5745 5745 5746 5746 5746 5746 5747 5747 5747 5746 5746 5745 5745 5745 5744 5744 5744 5744 5743 5743 5742 5741 5740 5739 5738 5737 5736 5734 5732 5730 5728 5727 5726 5725 5722 5720 5718 5716 5714 5712 5709 5706 5704 5702 5699 5697 5694 5692 5689 5687 5684 5682 5679 5677 5675 5672 5670 5667 5664 5661 5658 5656 5653 5650 5647 5644 5641 5638 5635 5632 5629 5626 5623 5619 5614 5610 5607 5604 5601 5597 5594 5590 5587 5584 5581
5741 5742 5742 5743 5743 5743 5744 5744 5743 5743 5743 5742 5742 5741 5741 5740 5740 5740 5740 5739 5738 5738 5737 5736 5735 5733 5731 5729 5728 5726 5724 5723 5722 5720 5718 5716 5714 5712 5710 5707 5704 5702 5700 5698 5695 5693 5690 5688 5685 5683 5680 5678 5675 5673 5671 5668 5666 5663 5660 5657 5655 5652 5649 5646 5643 5640 5637 5634 5631 5628 5625 5623 5620 5616 5612 5607 5603 5601 5598 5594 5590 5587 5584 5581 5578
5738 5738 5739 5739 5740 5740 5741 5740 5740 5740 5739 5739 5739 5738 5737 5737 5737 5736 5736 5735 5734 5734 5733 5732 5731 5728 5727 5725 5724 5722 5720 5719 5718 5716 5714 5712 5709 5707 5705 5702 5700 5697 5696 5694 5691 5689 5686 5684 5681 5679 5677 5674 5671 5669 5667 5664 5662 5659 5656 5653 5651 5648 5646 5643 5640 5636 5633 5630 5627 5625 5622 5619 5616 5614 5610 5605 5600 5597 5594 5591 5588 5585 5582 5579 5575
5735 5735 5736 5737 5737 5737 5737 5737 5737 5736 5736 5736 5735 5735 5734 5733 5733 5733 5732 5731 5730 5730 5729 5728 5726 5724 5722 5721 5720 5718 5717 5715 5713 5711 5709 5707 5704 5702 5700 5697 5695 5693 5691 5689 5687 5685 5682 5680 5677 5675 5673 5670 5668 5665 5663 5660 5658 5655 5652 5649 5647 5644 5642 5639 5636 5633 5629 5626 5623 5621 5618 5615 5612 5609 5607 5603 5599 5595 5591 5588 5585 5582 5578 5575 5572